Regional Weather Roundup
Issued by NWS

Home | Current Version | Previous Version | Graphics & Text | Print | Product List | Glossary On
Versions: 1 2 3 4 5 6 7 8 9 10 11 12 13 14 15 16 17 18 19 20 21 22 23 24 25 26 27 28 29 30 31 32 33 34 35 36 37 38 39 40 41 42 43 44 45 46 47 48 49 50
000
ASUS43 KLSX 231657
RWRMO

WEATHER SUMMARY FOR MISSOURI
NATIONAL WEATHER SERVICE SPRINGFIELD MO
1200 PM CDT WED MAY 23 2018

NOTE: "FAIR" INDICATES FEW OR NO CLOUDS BELOW 12,000 FEET WITH NO
       SIGNIFICANT WEATHER AND/OR OBSTRUCTIONS TO VISIBILITY.
       CURRENT SKY AND/OR WEATHER CONDITIONS ARE NOT AVAILABLE FOR
       CHILLICOTHE AND FARMINGTON.

MOZ001>031-035>038-043-044-053-054-231800-
...NORTHERN AND WESTERN MISSOURI...

CITY           SKY/WX    TMP DP  RH WIND       PRES   REMARKS
KANSAS CTY INT MOSUNNY   85  67  54 S10       30.11S
LEE`S SUMMIT   SUNNY     84  67  56 S9        30.12S
ST JOSEPH      MOSUNNY   88  66  48 S13       30.09S HX  90
CHILLICOTHE      N/A     86  69  56 E6        30.12S HX  90

$$
MOZ066>068-077>081-088>096-101>105-231800-
...SOUTHWEST MISSOURI...

CITY           SKY/WX    TMP DP  RH WIND       PRES   REMARKS
SPRINGFIELD    PTSUNNY   80  67  64 S8        30.12F
BRANSON        MOSUNNY   82  66  57 S8        30.14F

$$
MOZ032>034-039>042-045>050-055>058-069>072-231800-
...CENTRAL MISSOURI...

CITY           SKY/WX    TMP DP  RH WIND       PRES   REMARKS
COLUMBIA       NOT AVBL
JEFFERSON CITY SUNNY     83  66  56 SE6       30.13F
ROLLA          SUNNY     81  68  64 VRB5      30.17S
SEDALIA        MOSUNNY   83  70  64 S8        30.14S
WARRENSBURG    SUNNY     82  68  61 SE7       30.13R

$$
MOZ051-052-059>065-231800-
...EAST CENTRAL MISSOURI...

CITY           SKY/WX    TMP DP  RH WIND       PRES   REMARKS
ST LOUIS INTL  MOSUNNY   81  64  56 CALM      30.17S

$$
MOZ072>076-082>087-097>100-106>115-231800-
...SOUTH CENTRAL AND SOUTHEAST MISSOURI...

CITY           SKY/WX    TMP DP  RH WIND       PRES   REMARKS
CAPE GIRARDEAU FAIR      84  65  52 NE8       30.13F
POPLAR BLUFF   FAIR      85  68  56 NE6       30.12F
WEST PLAINS    MOSUNNY   82  69  64 SE8       30.16F

$$




USA.gov is the U.S. government's official web portal to all federal, state and local government web resources and services.